sat.trackr.live / text

‹ back to catalog

STARLINK-36913

NORAD 68031 · 2026-040S

PAYLOAD ACTIVE UNKNOWN

§ Identity

Operator
Country
US
Launch date
2026-03-01
Launch site
AFWTR
Launch vehicle
Mass (kg)
RCS (m²)

Purposes: comms

External: N2YO · Heavens-Above · Gunter

§ Orbital elements

Epoch: 2026-05-25T02:17:31.979328Z

Period
93.91 min
Inclination
97.2841°
Eccentricity
0.0001439
Mean motion
15.33454196 rev/d
Perigee alt
464.5 km
Apogee alt
466.5 km
Semi-major
6,843.7 km
B*
6.4249e-4
RAAN
94.1263°
Arg perigee
97.3332°
Mean anomaly
262.8074°
Rev number
1,317

§ Raw data

STARLINK-369131 68031U 26040S   26145.09550902  .00020730  00000+0  64249-3 0  99972 68031  97.2841  94.1263 0001439  97.3332 262.8074 15.33454196 13172

JSON: /api/v1/satellites/68031 · /tle

For live sub-satellite position, see the globe view (requires WebGL).

§ Visibility from observer

Set your observer location to see the next 7 days of passes ≥ 10°. The values pass through the URL so the page stays shareable.

No JS? Fill the form by hand. The geolocation button needs JavaScript.